Location: Domont
(49.0278°N, 2.3264°E)
Time: 01:44:59
(UTC+00:00)

Orbus 7S? - Pass Details

Date: 03 June 2022
Orbit: 340 x 6374 km, 56.9° (Epoch: 04 July)

Event Time Altitude Azimuth Distance (km) Brightness Sun altitude
Rises 02:50:28 0° 277° (W) 6,240 8.3 -8.0°
Reaches altitude 10° 02:53:33 10° 280° (W) 5,753 8.2 -7.7°
Maximum altitude 03:15:30 73° 8° (N) 5,346 8.4 -5.1°
Drops below altitude 10° 03:58:09 10° 97° (E) 9,716 10.4 0.3°
Sets 04:05:33 0° 101° (E) 10,370 10.5 1.3°
